Theta_e
335 343 347 351 349 349 350 348 347 347 345 344 343 341 341 341 342 346 345 344 345 345 345 343 344 344 345 344 343 342 342 341 341 343 343 342 341 340 339 339 340 335 341
340 343 345 349 349 349 349 348 348 346 345 342 342 341 340 340 340 340 341 342 342 340 342 343 343 344 344 343 343 343 339 340 341 341 339 341 340 340 338 338 337 335 337
339 342 344 347 348 348 349 348 348 346 343 342 342 340 341 342 340 339 339 342 341 341 342 342 342 342 342 341 342 341 339 339 339 337 336 331 332 338 338 338 337 337 338
339 341 342 344 347 348 349 347 348 346 343 342 340 342 342 343 341 339 339 341 341 342 341 341 340 340 339 340 340 339 338 337 335 332 324 328 330 335 336 335 334 334 332
337 340 341 344 347 347 347 346 347 345 343 341 341 340 342 343 341 340 338 340 341 341 340 340 339 338 337 336 336 335 335 335 333 328 324 326 326 329 330 332 332 332 331
337 340 341 344 346 346 346 346 346 345 341 340 340 338 339 340 343 341 340 340 340 340 338 338 338 337 336 334 334 333 334 333 329 325 324 327 326 332 331 329 327 326 329
336 338 340 342 344 346 346 346 346 344 341 339 340 339 338 337 339 340 340 340 340 339 337 336 336 335 334 332 331 331 331 329 322 322 322 327 326 331 329 329 327 329 328
336 337 338 335 338 342 344 345 344 343 342 341 340 339 337 336 337 340 339 340 340 338 336 335 335 334 332 331 330 330 330 327 322 321 321 322 330 326 325 326 325 324 324
335 334 334 335 334 334 337 339 340 340 340 340 340 339 338 337 336 336 340 340 338 337 336 335 334 333 331 329 328 329 327 325 319 320 322 321 329 325 324 324 323 322 324
332 332 331 332 333 332 333 332 334 336 337 336 335 332 331 330 330 331 330 337 338 335 335 335 334 332 330 328 327 326 325 324 317 319 320 321 327 324 323 322 321 320 321
329 330 329 330 331 331 331 329 330 331 331 330 329 326 325 325 324 325 327 332 336 334 332 330 330 330 328 326 325 324 323 318 316 317 317 326 325 323 321 320 320 320 319
328 328 328 328 330 331 333 330 329 329 327 327 326 324 325 323 324 324 322 326 329 330 332 329 328 327 325 319 317 321 318 317 316 315 316 326 324 323 322 321 319 319 319
328 331 331 328 330 328 329 329 328 327 326 326 323 323 323 322 322 321 319 320 319 320 320 321 320 319 320 321 319 317 318 317 315 315 317 325 324 324 323 323 322 320 321
328 328 333 333 331 330 328 329 328 327 327 326 324 324 321 319 318 321 320 319 319 319 318 318 318 319 319 320 319 319 319 317 316 316 315 321 326 325 325 325 325 324 323
328 329 331 333 331 332 331 331 330 330 328 327 326 325 322 320 319 320 320 320 320 318 319 318 318 318 318 319 319 319 318 318 317 317 315 316 322 326 326 327 327 327 325
328 330 331 331 331 331 330 331 330 330 331 330 327 325 324 321 320 320 320 320 320 320 319 318 317 317 317 317 317 318 318 318 318 317 317 315 320 325 326 327 328 329 328
327 330 331 331 331 330 329 331 331 331 332 330 330 329 325 324 321 320 319 319 319 320 319 317 316 316 315 316 315 316 316 317 316 317 316 316 316 319 323 326 328 328 329
324 327 331 332 331 329 329 331 332 332 331 331 331 331 329 327 324 320 319 319 319 319 317 315 314 314 313 314 313 314 312 313 314 314 314 315 315 315 318 323 326 327 328
324 324 327 329 329 327 329 333 333 332 331 331 331 330 330 329 327 323 320 319 319 317 315 315 314 314 313 314 313 313 313 312 312 314 314 314 315 316 317 318 320 321 325
322 324 326 329 328 327 328 332 332 332 332 332 331 330 330 329 328 327 326 324 322 319 316 317 316 315 313 312 312 310 312 310 311 312 313 313 313 313 314 315 316 315 318
310 321 326 328 327 327 325 328 328 328 329 330 330 330 330 329 328 327 325 325 324 320 318 317 316 313 313 312 310 310 309 310 310 310 312 310 311 312 311 312 313 315 315
299 302 316 327 327 327 327 327 330 329 329 330 330 330 330 329 328 326 325 324 323 322 321 318 316 313 313 313 310 307 304 305 307 311 310 310 310 310 310 310 311 311 312
298 299 303 316 327 327 327 329 327 326 326 326 327 328 329 330 328 325 325 323 322 321 320 319 317 315 314 312 312 310 304 302 305 311 310 310 308 307 307 308 309 309 310
304 299 300 309 322 328 330 328 326 324 322 325 325 327 327 328 327 326 324 323 322 321 320 319 318 318 315 313 309 309 311 309 306 305 307 309 308 308 307 307 306 307 309
305 299 303 309 313 319 327 327 324 322 322 321 319 319 319 320 317 317 320 322 322 321 321 320 319 317 317 315 311 309 305 305 305 302 303 306 307 307 307 306 309 310 308
301 302 304 306 307 313 315 318 318 316 315 313 311 310 307 309 306 305 306 307 308 310 312 315 315 313 314 314 315 314 308 307 307 302 303 305 306 308 309 309 307 307 308
Wind_Speed
2 5 8 11 14 14 15 16 15 15 14 15 15 16 17 17 17 16 18 17 15 17 19 18 19 20 20 21 22 22 21 21 20 21 20 20 20 20 19 17 15 13 18
8 6 9 11 14 15 15 15 15 13 13 15 15 15 16 18 18 17 16 15 16 16 17 19 19 20 20 21 19 19 20 19 19 17 17 17 19 18 19 18 17 14 16
12 7 7 11 12 14 12 13 14 14 14 15 15 14 15 17 18 17 16 15 17 18 18 18 19 20 18 16 16 18 17 15 16 14 14 7 8 18 18 17 18 17 18
13 8 7 10 11 11 11 12 14 15 14 15 14 13 15 15 17 16 16 15 15 16 18 17 18 18 18 17 18 17 15 16 15 13 7 6 8 16 16 17 16 16 15
12 10 9 11 11 11 10 14 15 15 13 13 13 13 15 16 15 17 15 14 14 18 17 17 17 16 16 15 14 16 13 17 14 9 6 7 6 11 13 14 14 14 13
11 10 10 12 12 12 11 14 15 15 14 12 12 13 14 14 17 16 14 13 13 16 16 15 15 15 14 12 12 18 13 15 11 7 6 7 6 13 13 12 12 11 10
10 8 9 12 11 12 13 13 14 14 14 12 12 14 13 13 14 13 13 12 15 16 15 14 14 13 12 11 12 13 12 11 7 6 6 6 6 12 10 9 11 9 10
11 8 7 10 10 11 11 13 14 15 13 11 12 13 12 13 12 10 12 13 16 15 14 13 12 11 11 10 9 12 10 10 7 6 6 4 7 8 7 8 8 7 7
13 8 6 6 9 11 10 11 13 13 11 11 12 13 12 11 11 13 9 13 15 14 13 12 11 10 9 8 7 10 10 6 6 4 4 3 6 6 5 6 6 5 6
11 9 7 6 6 6 6 11 12 12 11 11 11 10 9 9 10 10 8 9 13 13 13 12 9 8 8 6 7 9 9 5 2 5 4 2 6 4 3 3 3 2 4
8 8 8 7 6 6 6 7 9 10 10 9 7 8 7 4 6 7 7 10 11 11 9 9 7 5 5 4 4 6 8 3 3 2 2 5 2 2 2 1 0 1 2
7 10 8 7 7 7 6 5 5 6 4 5 5 5 3 5 4 5 6 8 9 9 8 7 5 1 1 2 2 2 2 2 3 2 2 6 4 2 2 3 3 3 3
8 8 10 8 9 7 6 4 3 3 3 3 6 5 5 4 4 3 3 2 3 5 2 3 0 0 2 4 3 2 2 2 1 1 4 8 6 5 5 6 7 6 7
10 8 7 7 9 8 5 5 5 4 3 3 4 5 4 3 3 3 3 4 3 3 3 3 1 3 2 1 2 3 3 3 2 2 4 9 10 9 9 9 9 10 10
13 11 10 7 7 8 8 6 6 5 4 5 4 4 4 3 3 3 3 3 3 3 3 3 3 3 2 3 3 3 3 4 5 3 2 9 11 12 12 12 12 13 13
13 13 12 9 7 4 4 6 4 4 4 4 4 5 5 3 3 2 2 3 2 3 3 3 4 3 4 3 5 5 6 5 5 6 4 4 12 13 15 16 16 16 16
12 14 14 12 9 7 6 5 4 4 4 4 4 5 6 4 3 3 2 2 3 2 3 1 2 2 2 3 5 5 5 6 5 6 5 4 5 11 15 20 19 19 20
10 14 14 11 11 8 7 4 3 3 3 2 3 3 4 5 4 2 3 3 3 1 1 0 1 3 4 4 3 4 4 5 6 6 5 5 5 5 9 20 21 23 23
9 9 11 11 12 9 7 5 4 4 4 4 3 3 3 4 4 4 2 3 2 2 2 2 1 1 3 4 4 4 5 5 6 5 9 11 10 10 8 11 17 20 24
8 8 9 10 11 8 5 5 3 3 3 3 4 4 5 4 4 3 3 4 3 3 3 1 3 2 3 4 4 6 6 7 7 9 11 9 9 11 10 11 9 9 18
5 5 9 10 10 8 4 4 3 3 3 2 3 5 5 4 5 4 3 4 3 4 4 4 3 4 3 2 2 4 5 8 9 8 8 7 9 10 9 9 7 8 8
1 2 3 8 12 8 6 4 3 3 2 2 3 4 5 5 5 4 5 4 4 3 4 4 4 2 3 3 3 2 4 4 4 6 6 7 10 6 7 7 9 9 9
3 2 1 5 10 9 9 5 4 3 2 2 2 2 4 5 6 6 6 5 5 4 4 4 4 5 5 3 6 3 4 4 4 4 6 5 6 4 5 7 8 9 10
2 2 2 4 8 9 11 6 8 4 3 3 2 1 2 3 3 3 4 4 4 3 4 4 3 5 3 5 1 4 7 4 7 10 1 4 5 6 6 5 6 7 10
3 2 4 7 8 6 7 6 6 6 3 3 4 5 5 6 10 9 9 8 5 3 3 4 4 4 2 4 3 2 3 3 3 6 15 10 6 6 7 8 9 8 10
5 6 6 9 8 9 9 9 8 9 6 5 6 6 5 5 6 8 7 6 6 7 6 5 4 5 4 4 4 4 2 5 6 4 9 15 16 10 10 6 7 8 9
Wind_Direction
146 125 112 103 106 111 105 102 97 92 93 95 91 87 83 82 77 72 72 69 73 78 77 76 78 80 82 79 75 72 71 68 65 64 64 70 66 65 63 59 57 59 60
127 116 107 98 103 103 110 109 103 101 100 98 92 87 87 84 81 77 80 78 77 82 85 85 84 84 84 85 83 81 79 78 76 65 63 66 77 71 67 68 69 68 68
120 116 102 94 97 100 117 119 116 107 102 97 90 89 91 97 87 87 82 88 92 86 86 83 83 83 78 80 79 81 79 72 69 71 62 52 63 73 75 68 72 72 77
121 110 96 96 100 100 121 120 112 101 100 98 98 98 96 100 94 88 83 81 79 90 87 83 80 76 65 59 54 51 53 71 63 53 43 45 63 69 71 69 68 69 68
118 115 108 99 96 94 113 119 109 101 102 105 100 90 82 82 98 99 91 87 78 86 85 84 83 78 71 62 56 44 70 73 63 64 60 54 53 63 70 65 68 68 61
116 119 116 108 101 89 120 113 110 105 105 109 105 101 88 78 79 95 97 94 84 88 82 79 78 76 69 62 51 53 72 84 69 55 51 64 71 82 75 72 75 76 70
116 117 115 107 100 88 111 117 112 110 107 111 107 100 92 87 82 82 104 102 94 90 85 81 78 76 72 60 44 54 56 61 70 64 47 62 70 81 81 76 83 80 71
118 107 105 107 102 94 103 118 113 109 105 108 107 105 100 94 86 76 116 99 94 94 88 86 83 78 72 60 46 44 82 89 78 75 58 37 76 76 80 77 74 70 76
120 114 112 114 115 105 102 113 107 99 108 107 101 97 93 85 81 66 68 103 99 95 91 85 82 79 70 49 30 46 55 65 103 89 67 29 75 80 62 77 77 84 83
126 131 134 125 113 112 110 107 110 118 118 109 104 107 103 102 88 74 52 85 85 87 85 87 81 79 78 54 18 6 40 17 44 110 101 68 82 87 81 79 87 75 54
134 141 144 148 145 131 122 125 123 125 120 120 127 131 122 108 92 86 73 79 92 97 98 96 90 73 77 57 23 355 10 23 125 105 131 145 152 158 162 97 290 152 186
150 152 161 160 156 147 137 133 128 134 139 140 141 148 112 127 137 109 92 90 99 98 96 95 93 74 348 334 301 341 347 28 96 152 188 171 189 225 232 226 238 245 241
163 160 162 162 159 147 143 150 148 155 149 152 165 170 155 124 122 134 126 114 126 115 106 104 89 208 248 259 258 244 258 313 326 196 197 199 208 240 241 237 249 245 249
163 163 171 173 154 152 152 164 172 162 171 166 182 155 128 129 146 161 167 176 180 169 171 174 206 254 253 237 236 303 253 261 252 254 223 220 215 232 247 246 243 247 249
166 170 171 177 165 157 160 163 170 166 158 163 165 158 145 156 175 159 194 183 192 167 180 190 201 225 255 281 288 282 271 269 277 263 239 236 230 231 245 254 251 248 253
169 169 167 168 188 169 176 171 163 165 158 157 161 175 167 163 173 174 176 181 199 187 189 197 203 216 236 244 266 266 269 274 266 268 257 247 238 237 242 252 255 255 255
171 166 168 173 180 179 176 164 153 158 133 151 152 174 181 160 188 180 195 214 226 216 212 234 283 281 270 270 265 267 260 258 261 270 278 268 258 247 245 249 254 256 257
160 163 173 171 175 176 153 181 184 181 163 144 126 126 175 185 172 182 186 218 228 204 179 183 271 295 282 263 269 273 283 286 278 270 267 258 243 240 247 245 248 254 256
167 161 167 166 169 160 158 163 169 166 156 174 179 193 201 177 201 185 209 241 201 177 174 189 237 236 279 289 289 285 281 274 267 264 260 256 250 248 247 247 241 248 250
174 171 154 165 162 154 144 142 162 167 179 174 186 194 204 193 199 221 232 241 192 201 232 217 236 231 243 259 289 289 269 262 260 259 262 265 258 257 251 248 245 249 250
81 171 156 154 162 150 146 142 171 184 172 180 191 200 201 196 201 218 230 241 216 220 225 217 213 238 276 225 260 278 268 248 251 248 256 252 257 256 246 246 241 246 255
83 75 126 170 163 161 155 156 146 152 164 167 187 209 203 196 201 215 218 228 228 235 237 237 210 242 245 203 245 255 300 299 261 260 248 245 251 258 251 246 250 251 248
35 16 213 160 172 166 162 143 96 95 81 128 200 215 217 209 208 210 218 217 221 210 239 230 217 212 255 255 217 224 286 269 303 237 243 253 264 258 252 249 243 244 250
312 245 103 123 153 172 161 155 142 154 145 176 128 69 308 261 254 245 252 242 238 225 242 245 229 235 231 258 233 224 255 299 303 307 359 286 267 270 271 263 253 247 249
33 97 108 96 86 124 143 144 140 145 143 92 100 84 57 58 50 35 34 28 14 0 339 338 324 307 273 277 238 226 234 256 253 264 302 295 282 245 247 247 256 255 253
44 67 77 80 66 74 82 88 101 104 99 83 67 69 51 54 40 35 28 27 26 21 11 2 350 350 341 322 311 309 265 290 288 273 287 299 297 295 288 252 244 252 252